Погода в Кварцитном

Россия / Республика Карелия     61°29′52″N   35°02′50″E
темп.,
°C
ветер,
м/с
пор.,
м/с
влажн.,
%
обл.,
%
осадки,
мм/ч
давл.,
гПа
погр.,
м
28 сентября, вт
вт2800:00+8всв22908 0.0 103352
03:00+8вюв118842 0.0 103323
06:00+7юв128875 0.0 1034101
09:00+8ююв128373 0.0 1035171
12:00+11всв116998 0.0 1035557
15:00+11всв21706 0.0 1035543
18:00+8вюв228491 0.0 103541
21:00+8ююз2286100 0.0 103543
29 сентября, ср
ср2900:00+7юз228963 0.0 103652
03:00+7зюз228914 0.0 103664
06:00+6з228940 0.0 103675
09:00+8зсз238225 0.0 1036187
12:00+11сз237135 0.0 1036445
15:00+12ссз126882 0.0 1035411
18:00+10зсз117979 0.0 103510
21:00+9з238495 0.0 103531
30 сентября, чт
чт3000:00+8з238687 0.0 103562
03:00+7з228880 0.0 103573
06:00+6з228833 0.0 103576
09:00+8з22755 0.0 1035155
12:00+11зсз12616 0.0 1035406
15:00+12ссз02575 0.0 1034531
18:00+9вюв11745 0.0 103323
21:00+8юз22805 0.0 103333
1 октября, пт
пт100:00+7зюз23835 0.0 103357
03:00+6юз23865 0.0 103370
06:00+5юз338939 0.0 103286
09:00+7юз358262 0.0 1032177
12:00+11юз35625 0.0 1032473
15:00+12юз355820 0.0 1031594
18:00+9юз347530 0.0 103058
21:00+7юз368678 0.0 1030128
2 октября, сб
сб200:00+8ююз3884100 0.0 1030213
03:00+8ююз378698 0.1 1030232
06:00+8ююз3688100 0.0 1029208
09:00+9ююз378365 0.0 1029276
12:00+12ююз356989 0.0 1029474
15:00+13ююз3665100 0.0 1029573
18:00+10ю34795 0.0 102858
21:00+8ююз38875 0.0 1029178